Wetterdaten: Donnerstag, 17.03.2011
Datum Zeit Temp. A. Feuchte A. Luftdruck Regen Wind Richtung Richtung Sonnenschein UV Solar Windben
17.03.2011 00:00 5,1 C 88 % 1008,1 hPa 0,0 mm 1,6 km/h (1 Bft) N 360 0 min 0 UV-I 0 W/m 6,4 km/h (2 Bft)
17.03.2011 00:10 5,1 C 88 % 1007,9 hPa 0,0 mm 0,0 km/h (0 Bft) N 360 0 min 0 UV-I 0 W/m 4,8 km/h (1 Bft)
17.03.2011 00:20 5,1 C 88 % 1008,0 hPa 0,0 mm 0,0 km/h (0 Bft) N 360 0 min 0 UV-I 0 W/m 4,8 km/h (1 Bft)
17.03.2011 00:30 5,2 C 88 % 1007,9 hPa 0,0 mm 3,2 km/h (1 Bft) N 360 0 min 0 UV-I 0 W/m 9,7 km/h (2 Bft)
17.03.2011 00:40 5,2 C 88 % 1007,8 hPa 0,0 mm 1,6 km/h (1 Bft) N 360 0 min 0 UV-I 0 W/m 6,4 km/h (2 Bft)
17.03.2011 00:50 5,3 C 88 % 1007,6 hPa 0,0 mm 1,6 km/h (1 Bft) N 360 0 min 0 UV-I 0 W/m 6,4 km/h (2 Bft)
17.03.2011 01:00 5,3 C 88 % 1007,6 hPa 0,0 mm 1,6 km/h (1 Bft) N-NO 22 0 min 0 UV-I 0 W/m 9,7 km/h (2 Bft)
17.03.2011 01:10 5,3 C 89 % 1007,5 hPa 0,0 mm 1,6 km/h (1 Bft) N 360 0 min 0 UV-I 0 W/m 8,0 km/h (2 Bft)
17.03.2011 01:20 5,3 C 89 % 1007,6 hPa 0,0 mm 1,6 km/h (1 Bft) NO 45 0 min 0 UV-I 0 W/m 8,0 km/h (2 Bft)
17.03.2011 01:30 5,3 C 89 % 1007,5 hPa 0,0 mm 1,6 km/h (1 Bft) N 360 0 min 0 UV-I 0 W/m 6,4 km/h (2 Bft)
17.03.2011 01:40 5,3 C 89 % 1007,4 hPa 0,0 mm 1,6 km/h (1 Bft) O 90 0 min 0 UV-I 0 W/m 4,8 km/h (1 Bft)
17.03.2011 01:50 5,3 C 89 % 1007,3 hPa 0,0 mm 1,6 km/h (1 Bft) N-NO 22 0 min 0 UV-I 0 W/m 9,7 km/h (2 Bft)
17.03.2011 02:00 5,3 C 89 % 1007,2 hPa 0,0 mm 1,6 km/h (1 Bft) N-NO 22 0 min 0 UV-I 0 W/m 6,4 km/h (2 Bft)
17.03.2011 02:10 5,3 C 89 % 1007,2 hPa 0,0 mm 1,6 km/h (1 Bft) NO 45 0 min 0 UV-I 0 W/m 8,0 km/h (2 Bft)
17.03.2011 02:20 5,3 C 89 % 1006,9 hPa 0,0 mm 0,0 km/h (0 Bft) N-NO 22 0 min 0 UV-I 0 W/m 8,0 km/h (2 Bft)
17.03.2011 02:30 5,3 C 89 % 1007,0 hPa 0,0 mm 1,6 km/h (1 Bft) O-NO 67 0 min 0 UV-I 0 W/m 4,8 km/h (1 Bft)
17.03.2011 02:40 5,4 C 90 % 1006,8 hPa 0,0 mm 1,6 km/h (1 Bft) O-NO 67 0 min 0 UV-I 0 W/m 8,0 km/h (2 Bft)
17.03.2011 02:50 5,4 C 89 % 1006,7 hPa 0,0 mm 1,6 km/h (1 Bft) NO 45 0 min 0 UV-I 0 W/m 6,4 km/h (2 Bft)
17.03.2011 03:00 5,4 C 90 % 1006,6 hPa 0,0 mm 1,6 km/h (1 Bft) N-NO 22 0 min 0 UV-I 0 W/m 8,0 km/h (2 Bft)
17.03.2011 03:10 5,5 C 90 % 1006,5 hPa 0,0 mm 3,2 km/h (1 Bft) O-NO 67 0 min 0 UV-I 0 W/m 9,7 km/h (2 Bft)
17.03.2011 03:20 5,6 C 90 % 1006,5 hPa 0,0 mm 3,2 km/h (1 Bft) O-NO 67 0 min 0 UV-I 0 W/m 8,0 km/h (2 Bft)
17.03.2011 03:30 5,6 C 90 % 1006,3 hPa 0,0 mm 1,6 km/h (1 Bft) N-NO 22 0 min 0 UV-I 0 W/m 8,0 km/h (2 Bft)
17.03.2011 03:40 5,6 C 90 % 1006,3 hPa 0,0 mm 1,6 km/h (1 Bft) NO 45 0 min 0 UV-I 0 W/m 8,0 km/h (2 Bft)
17.03.2011 03:50 5,6 C 90 % 1006,3 hPa 0,0 mm 1,6 km/h (1 Bft) N-NO 22 0 min 0 UV-I 0 W/m 6,4 km/h (2 Bft)
17.03.2011 04:00 5,7 C 90 % 1006,3 hPa 0,0 mm 1,6 km/h (1 Bft) NO 45 0 min 0 UV-I 0 W/m 8,0 km/h (2 Bft)
17.03.2011 04:10 5,7 C 90 % 1006,2 hPa 0,0 mm 3,2 km/h (1 Bft) O-NO 67 0 min 0 UV-I 0 W/m 14,5 km/h (3 Bft)
17.03.2011 04:20 5,7 C 90 % 1006,0 hPa 0,0 mm 3,2 km/h (1 Bft) NO 45 0 min 0 UV-I 0 W/m 9,7 km/h (2 Bft)
17.03.2011 04:30 5,8 C 90 % 1006,0 hPa 0,0 mm 3,2 km/h (1 Bft) O-NO 67 0 min 0 UV-I 0 W/m 9,7 km/h (2 Bft)
17.03.2011 04:40 5,8 C 90 % 1006,0 hPa 0,0 mm 1,6 km/h (1 Bft) O-NO 67 0 min 0 UV-I 0 W/m 8,0 km/h (2 Bft)
17.03.2011 04:50 5,8 C 90 % 1006,1 hPa 0,0 mm 3,2 km/h (1 Bft) O-NO 67 0 min 0 UV-I 0 W/m 8,0 km/h (2 Bft)
17.03.2011 05:00 5,9 C 90 % 1006,3 hPa 0,0 mm 1,6 km/h (1 Bft) O-NO 67 0 min 0 UV-I 0 W/m 6,4 km/h (2 Bft)
17.03.2011 05:10 5,9 C 91 % 1006,3 hPa 0,0 mm 1,6 km/h (1 Bft) O-NO 67 0 min 0 UV-I 0 W/m 6,4 km/h (2 Bft)
17.03.2011 05:20 5,9 C 91 % 1006,3 hPa 0,0 mm 0,0 km/h (0 Bft) O 90 0 min 0 UV-I 0 W/m 4,8 km/h (1 Bft)
17.03.2011 05:30 5,9 C 91 % 1006,3 hPa 0,0 mm 1,6 km/h (1 Bft) NO 45 0 min 0 UV-I 0 W/m 8,0 km/h (2 Bft)
17.03.2011 05:40 6,0 C 91 % 1006,3 hPa 0,0 mm 1,6 km/h (1 Bft) N-NO 22 0 min 0 UV-I 0 W/m 6,4 km/h (2 Bft)
17.03.2011 05:50 6,1 C 91 % 1006,3 hPa 0,0 mm 0,0 km/h (0 Bft) O-NO 67 0 min 0 UV-I 0 W/m 6,4 km/h (2 Bft)
17.03.2011 06:00 6,1 C 91 % 1006,4 hPa 0,0 mm 1,6 km/h (1 Bft) N 360 0 min 0 UV-I 0 W/m 4,8 km/h (1 Bft)
17.03.2011 06:10 6,0 C 91 % 1006,4 hPa 0,0 mm 1,6 km/h (1 Bft) N 360 0 min 0 UV-I 0 W/m 6,4 km/h (2 Bft)
17.03.2011 06:20 6,0 C 91 % 1006,5 hPa 0,0 mm 1,6 km/h (1 Bft) N 360 0 min 0 UV-I 0 W/m 8,0 km/h (2 Bft)
17.03.2011 06:30 6,0 C 91 % 1006,7 hPa 0,0 mm 1,6 km/h (1 Bft) N-NO 22 0 min 0 UV-I 0 W/m 8,0 km/h (2 Bft)
17.03.2011 06:40 6,1 C 91 % 1006,5 hPa 0,0 mm 1,6 km/h (1 Bft) N-NO 22 0 min 0 UV-I 0 W/m 6,4 km/h (2 Bft)
17.03.2011 06:50 6,1 C 91 % 1006,6 hPa 0,0 mm 1,6 km/h (1 Bft) N-NO 22 0 min 0 UV-I 0 W/m 6,4 km/h (2 Bft)
17.03.2011 07:00 6,1 C 91 % 1006,6 hPa 0,0 mm 1,6 km/h (1 Bft) N-NO 22 0 min 0 UV-I 0 W/m 9,7 km/h (2 Bft)
17.03.2011 07:10 6,1 C 91 % 1006,7 hPa 0,0 mm 3,2 km/h (1 Bft) N 360 0 min 0 UV-I 0 W/m 9,7 km/h (2 Bft)
17.03.2011 07:20 6,1 C 91 % 1006,6 hPa 0,0 mm 1,6 km/h (1 Bft) N-NO 22 0 min 0 UV-I 0 W/m 8,0 km/h (2 Bft)
17.03.2011 07:30 6,1 C 91 % 1006,7 hPa 0,0 mm 1,6 km/h (1 Bft) NO 45 0 min 0 UV-I 0 W/m 4,8 km/h (1 Bft)
17.03.2011 07:40 6,1 C 91 % 1006,7 hPa 0,0 mm 1,6 km/h (1 Bft) NO 45 0 min 0 UV-I 5 W/m 8,0 km/h (2 Bft)
17.03.2011 07:50 6,1 C 91 % 1006,6 hPa 0,0 mm 1,6 km/h (1 Bft) N-NO 22 0 min 0 UV-I 9 W/m 4,8 km/h (1 Bft)
17.03.2011 08:00 6,1 C 91 % 1006,7 hPa 0,0 mm 0,8 km/h (0 Bft) NO 51 0 min 0 UV-I 7 W/m 4,8 km/h (1 Bft)
17.03.2011 08:10 6,1 C 91 % 1006,7 hPa 0,0 mm 2,3 km/h (1 Bft) N 360 0 min 0 UV-I 9 W/m 11,3 km/h (2 Bft)
17.03.2011 08:20 6,1 C 90 % 1006,7 hPa 0,0 mm 1,6 km/h (1 Bft) N 360 0 min 0 UV-I 11 W/m 8,0 km/h (2 Bft)
17.03.2011 08:30 6,1 C 90 % 1006,7 hPa 0,0 mm 1,6 km/h (1 Bft) N-NO 22 0 min 0 UV-I 14 W/m 9,7 km/h (2 Bft)
17.03.2011 08:40 6,1 C 90 % 1006,8 hPa 0,0 mm 3,2 km/h (1 Bft) N-NO 22 0 min 0 UV-I 14 W/m 9,7 km/h (2 Bft)
17.03.2011 08:50 6,1 C 90 % 1006,8 hPa 0,0 mm 1,6 km/h (1 Bft) N-NO 22 0 min 0 UV-I 11 W/m 11,3 km/h (2 Bft)
17.03.2011 09:00 6,0 C 90 % 1007,0 hPa 0,0 mm 1,6 km/h (1 Bft) N-NO 22 0 min 0 UV-I 14 W/m 8,0 km/h (2 Bft)
17.03.2011 09:10 6,0 C 90 % 1007,0 hPa 0,0 mm 1,6 km/h (1 Bft) N-NO 22 0 min 0 UV-I 16 W/m 4,8 km/h (1 Bft)
17.03.2011 09:20 6,0 C 90 % 1007,0 hPa 0,0 mm 1,6 km/h (1 Bft) N-NO 22 0 min 0 UV-I 16 W/m 8,0 km/h (2 Bft)
17.03.2011 09:30 5,9 C 90 % 1007,1 hPa 0,0 mm 3,2 km/h (1 Bft) N-NO 22 0 min 0 UV-I 25 W/m 16,1 km/h (3 Bft)
17.03.2011 09:40 6,0 C 90 % 1007,1 hPa 0,0 mm 1,6 km/h (1 Bft) N-NO 22 0 min 0 UV-I 37 W/m 11,3 km/h (2 Bft)
17.03.2011 09:50 5,9 C 91 % 1007,1 hPa 0,0 mm 3,2 km/h (1 Bft) N-NO 22 0 min 0 UV-I 35 W/m 9,7 km/h (2 Bft)
17.03.2011 10:00 5,9 C 91 % 1007,0 hPa 0,0 mm 1,6 km/h (1 Bft) N-NO 22 0 min 0 UV-I 35 W/m 8,0 km/h (2 Bft)
17.03.2011 10:10 5,9 C 91 % 1007,1 hPa 0,0 mm 1,6 km/h (1 Bft) O-NO 67 0 min 0 UV-I 33 W/m 8,0 km/h (2 Bft)
17.03.2011 10:20 5,9 C 91 % 1007,1 hPa 0,0 mm 1,6 km/h (1 Bft) N 360 0 min 0 UV-I 35 W/m 8,0 km/h (2 Bft)
17.03.2011 10:30 5,9 C 91 % 1007,0 hPa 0,0 mm 1,6 km/h (1 Bft) N 360 0 min 0 UV-I 35 W/m 4,8 km/h (1 Bft)
17.03.2011 10:40 6,0 C 91 % 1007,1 hPa 0,0 mm 1,6 km/h (1 Bft) N-NO 22 0 min 0 UV-I 30 W/m 6,4 km/h (2 Bft)
17.03.2011 10:50 5,9 C 91 % 1007,2 hPa 0,0 mm 1,6 km/h (1 Bft) N-NO 22 0 min 0 UV-I 28 W/m 6,4 km/h (2 Bft)
17.03.2011 11:00 5,9 C 91 % 1007,2 hPa 0,0 mm 1,6 km/h (1 Bft) N-NO 22 0 min 0 UV-I 33 W/m 8,0 km/h (2 Bft)
17.03.2011 11:10 5,8 C 91 % 1007,4 hPa 0,0 mm 3,2 km/h (1 Bft) N 360 0 min 0 UV-I 33 W/m 9,7 km/h (2 Bft)
17.03.2011 11:20 5,8 C 91 % 1007,5 hPa 0,0 mm 3,2 km/h (1 Bft) N-NO 22 0 min 0 UV-I 40 W/m 8,0 km/h (2 Bft)
17.03.2011 11:30 5,9 C 90 % 1007,5 hPa 0,0 mm 1,6 km/h (1 Bft) NO 45 0 min 0 UV-I 44 W/m 8,0 km/h (2 Bft)
17.03.2011 11:40 5,9 C 90 % 1007,5 hPa 0,0 mm 1,6 km/h (1 Bft) N-NO 22 0 min 0 UV-I 42 W/m 8,0 km/h (2 Bft)
17.03.2011 11:50 5,9 C 90 % 1007,5 hPa 0,0 mm 1,6 km/h (1 Bft) N-NO 22 0 min 0 UV-I 49 W/m 8,0 km/h (2 Bft)
17.03.2011 12:00 5,9 C 90 % 1007,5 hPa 0,0 mm 3,2 km/h (1 Bft) N 360 0 min 0 UV-I 58 W/m 8,0 km/h (2 Bft)
17.03.2011 12:10 6,0 C 90 % 1007,5 hPa 0,0 mm 0,0 km/h (0 Bft) N 360 0 min 0 UV-I 63 W/m 6,4 km/h (2 Bft)
17.03.2011 12:20 6,0 C 89 % 1007,5 hPa 0,0 mm 1,6 km/h (1 Bft) N 360 0 min 0 UV-I 63 W/m 9,7 km/h (2 Bft)
17.03.2011 12:30 6,0 C 88 % 1007,5 hPa 0,0 mm 1,6 km/h (1 Bft) N-NO 22 0 min 0 UV-I 54 W/m 9,7 km/h (2 Bft)
17.03.2011 12:40 6,1 C 88 % 1007,6 hPa 0,0 mm 1,6 km/h (1 Bft) N-NO 22 0 min 0 UV-I 49 W/m 8,0 km/h (2 Bft)
17.03.2011 12:50 6,1 C 88 % 1007,7 hPa 0,0 mm 1,6 km/h (1 Bft) N 360 0 min 0 UV-I 56 W/m 8,0 km/h (2 Bft)
17.03.2011 13:00 6,1 C 88 % 1007,7 hPa 0,0 mm 1,6 km/h (1 Bft) N 360 0 min 0 UV-I 42 W/m 8,0 km/h (2 Bft)
17.03.2011 13:10 6,1 C 88 % 1007,7 hPa 0,0 mm 0,0 km/h (0 Bft) N 360 0 min 0 UV-I 37 W/m 4,8 km/h (1 Bft)
17.03.2011 13:20 6,0 C 89 % 1007,8 hPa 0,0 mm 0,0 km/h (0 Bft) N 360 0 min 0 UV-I 40 W/m 6,4 km/h (2 Bft)
17.03.2011 13:30 6,0 C 89 % 1007,9 hPa 0,0 mm 0,0 km/h (0 Bft) N 360 0 min 0 UV-I 39 W/m 4,8 km/h (1 Bft)
17.03.2011 13:40 5,9 C 89 % 1008,0 hPa 0,0 mm 1,6 km/h (1 Bft) NW 315 0 min 0 UV-I 42 W/m 9,7 km/h (2 Bft)
17.03.2011 13:50 5,8 C 89 % 1008,0 hPa 0,0 mm 1,6 km/h (1 Bft) N-NW 337 0 min 0 UV-I 39 W/m 11,3 km/h (2 Bft)
17.03.2011 14:00 5,7 C 89 % 1008,0 hPa 0,0 mm 3,2 km/h (1 Bft) N 360 0 min 0 UV-I 47 W/m 11,3 km/h (2 Bft)
17.03.2011 14:10 5,7 C 90 % 1008,0 hPa 0,0 mm 1,6 km/h (1 Bft) N 360 0 min 0 UV-I 42 W/m 9,7 km/h (2 Bft)
17.03.2011 14:20 5,7 C 90 % 1008,1 hPa 0,0 mm 3,2 km/h (1 Bft) N 360 0 min 0 UV-I 37 W/m 9,7 km/h (2 Bft)
17.03.2011 14:30 5,6 C 90 % 1008,0 hPa 0,0 mm 1,6 km/h (1 Bft) N 360 0 min 0 UV-I 37 W/m 11,3 km/h (2 Bft)
17.03.2011 14:40 5,4 C 90 % 1008,0 hPa 0,0 mm 1,6 km/h (1 Bft) NW 315 0 min 0 UV-I 56 W/m 9,7 km/h (2 Bft)
17.03.2011 14:50 5,4 C 90 % 1008,2 hPa 0,0 mm 1,6 km/h (1 Bft) N-NO 22 0 min 0 UV-I 54 W/m 9,7 km/h (2 Bft)
17.03.2011 15:00 5,4 C 90 % 1008,3 hPa 0,0 mm 1,6 km/h (1 Bft) N-NO 22 0 min 0 UV-I 49 W/m 9,7 km/h (2 Bft)
17.03.2011 15:10 5,3 C 90 % 1008,3 hPa 0,0 mm 1,6 km/h (1 Bft) W-NW 292 0 min 0 UV-I 46 W/m 8,0 km/h (2 Bft)
17.03.2011 15:20 5,3 C 90 % 1008,4 hPa 0,0 mm 3,2 km/h (1 Bft) NW 315 0 min 0 UV-I 49 W/m 9,7 km/h (2 Bft)
17.03.2011 15:30 5,3 C 90 % 1008,5 hPa 0,0 mm 1,6 km/h (1 Bft) NW 315 0 min 0 UV-I 44 W/m 8,0 km/h (2 Bft)
17.03.2011 15:40 5,4 C 89 % 1008,6 hPa 0,0 mm 1,6 km/h (1 Bft) W-NW 292 0 min 0 UV-I 28 W/m 8,0 km/h (2 Bft)
17.03.2011 15:50 5,4 C 89 % 1008,8 hPa 0,0 mm 1,6 km/h (1 Bft) NW 315 0 min 0 UV-I 19 W/m 6,4 km/h (2 Bft)
17.03.2011 16:00 5,3 C 89 % 1008,9 hPa 0,0 mm 0,5 km/h (0 Bft) N 355 0 min 0 UV-I 13 W/m 3,2 km/h (1 Bft)
17.03.2011 16:10 5,3 C 89 % 1009,0 hPa 0,0 mm 0,0 km/h (0 Bft) NW 315 0 min 0 UV-I 14 W/m 6,4 km/h (2 Bft)
17.03.2011 16:20 5,3 C 89 % 1009,1 hPa 0,0 mm 1,6 km/h (1 Bft) NW 315 0 min 0 UV-I 14 W/m 6,4 km/h (2 Bft)
17.03.2011 16:30 5,3 C 89 % 1009,2 hPa 0,0 mm 1,6 km/h (1 Bft) NW 315 0 min 0 UV-I 12 W/m 11,3 km/h (2 Bft)
17.03.2011 16:40 5,3 C 90 % 1009,3 hPa 0,0 mm 1,6 km/h (1 Bft) W-NW 292 0 min 0 UV-I 12 W/m 11,3 km/h (2 Bft)
17.03.2011 16:50 5,3 C 90 % 1009,4 hPa 0,0 mm 1,6 km/h (1 Bft) NW 315 0 min 0 UV-I 12 W/m 9,7 km/h (2 Bft)
17.03.2011 17:00 5,2 C 90 % 1009,5 hPa 0,0 mm 1,6 km/h (1 Bft) W-NW 292 0 min 0 UV-I 12 W/m 6,4 km/h (2 Bft)
17.03.2011 17:10 5,3 C 90 % 1009,7 hPa 0,0 mm 1,6 km/h (1 Bft) W-NW 292 0 min 0 UV-I 14 W/m 8,0 km/h (2 Bft)
17.03.2011 17:20 5,3 C 90 % 1009,8 hPa 0,0 mm 3,2 km/h (1 Bft) W-NW 292 0 min 0 UV-I 11 W/m 11,3 km/h (2 Bft)
17.03.2011 17:30 5,3 C 89 % 1010,0 hPa 0,0 mm 3,2 km/h (1 Bft) W-NW 292 0 min 0 UV-I 7 W/m 14,5 km/h (3 Bft)
17.03.2011 17:40 5,2 C 89 % 1010,0 hPa 0,0 mm 1,6 km/h (1 Bft) W-NW 292 0 min 0 UV-I 7 W/m 6,4 km/h (2 Bft)
17.03.2011 17:50 5,2 C 89 % 1010,1 hPa 0,0 mm 1,6 km/h (1 Bft) NW 315 0 min 0 UV-I 5 W/m 6,4 km/h (2 Bft)
17.03.2011 18:00 5,2 C 89 % 1010,2 hPa 0,0 mm 1,6 km/h (1 Bft) NW 315 0 min 0 UV-I 0 W/m 8,0 km/h (2 Bft)
17.03.2011 18:10 5,2 C 89 % 1010,3 hPa 0,0 mm 1,6 km/h (1 Bft) NW 315 0 min 0 UV-I 0 W/m 8,0 km/h (2 Bft)
17.03.2011 18:20 5,3 C 90 % 1010,4 hPa 0,0 mm 0,0 km/h (0 Bft) N-NW 337 0 min 0 UV-I 0 W/m 6,4 km/h (2 Bft)
17.03.2011 18:30 5,3 C 90 % 1010,5 hPa 0,0 mm 0,0 km/h (0 Bft) W 270 0 min 0 UV-I 0 W/m 3,2 km/h (1 Bft)
17.03.2011 18:40 5,3 C 90 % 1010,8 hPa 0,0 mm 0,0 km/h (0 Bft) W 270 0 min 0 UV-I 0 W/m 3,2 km/h (1 Bft)
17.03.2011 18:50 5,3 C 90 % 1010,8 hPa 0,0 mm 0,0 km/h (0 Bft) W 270 0 min 0 UV-I 0 W/m 4,8 km/h (1 Bft)
17.03.2011 19:00 5,3 C 90 % 1010,9 hPa 0,0 mm 0,0 km/h (0 Bft) W 270 0 min 0 UV-I 0 W/m 4,8 km/h (1 Bft)
17.03.2011 19:10 5,3 C 90 % 1011,0 hPa 0,0 mm 0,0 km/h (0 Bft) W 270 0 min 0 UV-I 0 W/m 4,8 km/h (1 Bft)
17.03.2011 19:20 5,3 C 90 % 1011,1 hPa 0,0 mm 0,0 km/h (0 Bft) W 270 0 min 0 UV-I 0 W/m 4,8 km/h (1 Bft)
17.03.2011 19:30 5,3 C 90 % 1011,1 hPa 0,0 mm 0,0 km/h (0 Bft) W 270 0 min 0 UV-I 0 W/m 1,6 km/h (1 Bft)
17.03.2011 19:40 5,4 C 90 % 1011,2 hPa 0,0 mm 1,6 km/h (1 Bft) W 270 0 min 0 UV-I 0 W/m 6,4 km/h (2 Bft)
17.03.2011 19:50 5,4 C 90 % 1011,3 hPa 0,0 mm 0,0 km/h (0 Bft) W 270 0 min 0 UV-I 0 W/m 3,2 km/h (1 Bft)
17.03.2011 20:00 5,4 C 90 % 1011,6 hPa 0,0 mm 0,0 km/h (0 Bft) W 270 0 min 0 UV-I 0 W/m 4,8 km/h (1 Bft)
17.03.2011 20:10 5,4 C 90 % 1011,7 hPa 0,0 mm 1,6 km/h (1 Bft) W 270 0 min 0 UV-I 0 W/m 4,8 km/h (1 Bft)
17.03.2011 20:20 5,4 C 90 % 1011,8 hPa 0,0 mm 0,0 km/h (0 Bft) W 270 0 min 0 UV-I 0 W/m 3,2 km/h (1 Bft)
17.03.2011 20:30 5,4 C 90 % 1012,0 hPa 0,0 mm 0,0 km/h (0 Bft) W 270 0 min 0 UV-I 0 W/m 3,2 km/h (1 Bft)
17.03.2011 20:40 5,5 C 90 % 1012,1 hPa 0,0 mm 1,6 km/h (1 Bft) W 270 0 min 0 UV-I 0 W/m 6,4 km/h (2 Bft)
17.03.2011 20:50 5,5 C 90 % 1012,1 hPa 0,0 mm 0,0 km/h (0 Bft) W 270 0 min 0 UV-I 0 W/m 3,2 km/h (1 Bft)
17.03.2011 21:00 5,6 C 90 % 1012,3 hPa 0,0 mm 1,6 km/h (1 Bft) W 270 0 min 0 UV-I 0 W/m 6,4 km/h (2 Bft)
17.03.2011 21:10 5,6 C 90 % 1012,3 hPa 0,0 mm 1,6 km/h (1 Bft) W 270 0 min 0 UV-I 0 W/m 4,8 km/h (1 Bft)
17.03.2011 21:20 5,6 C 90 % 1012,2 hPa 0,0 mm 1,6 km/h (1 Bft) W 270 0 min 0 UV-I 0 W/m 8,0 km/h (2 Bft)
17.03.2011 21:30 5,7 C 90 % 1012,3 hPa 0,0 mm 1,6 km/h (1 Bft) W-SW 247 0 min 0 UV-I 0 W/m 6,4 km/h (2 Bft)
17.03.2011 21:40 5,7 C 90 % 1012,5 hPa 0,0 mm 1,6 km/h (1 Bft) W-SW 247 0 min 0 UV-I 0 W/m 6,4 km/h (2 Bft)
17.03.2011 21:50 5,8 C 90 % 1012,5 hPa 0,0 mm 1,6 km/h (1 Bft) W-SW 247 0 min 0 UV-I 0 W/m 4,8 km/h (1 Bft)
17.03.2011 22:00 5,8 C 90 % 1012,5 hPa 0,0 mm 1,6 km/h (1 Bft) W-SW 247 0 min 0 UV-I 0 W/m 6,4 km/h (2 Bft)
17.03.2011 22:10 5,9 C 90 % 1012,7 hPa 0,0 mm 3,2 km/h (1 Bft) W-SW 247 0 min 0 UV-I 0 W/m 8,0 km/h (2 Bft)
17.03.2011 22:20 5,9 C 90 % 1012,8 hPa 0,0 mm 3,2 km/h (1 Bft) W-SW 247 0 min 0 UV-I 0 W/m 9,7 km/h (2 Bft)
17.03.2011 22:30 5,9 C 90 % 1012,8 hPa 0,0 mm 1,6 km/h (1 Bft) W-SW 247 0 min 0 UV-I 0 W/m 9,7 km/h (2 Bft)
17.03.2011 22:40 6,0 C 90 % 1012,8 hPa 0,0 mm 1,6 km/h (1 Bft) W-SW 247 0 min 0 UV-I 0 W/m 8,0 km/h (2 Bft)
17.03.2011 22:50 6,1 C 90 % 1012,9 hPa 0,0 mm 3,2 km/h (1 Bft) W-SW 247 0 min 0 UV-I 0 W/m 9,7 km/h (2 Bft)
17.03.2011 23:00 6,1 C 90 % 1012,9 hPa 0,0 mm 1,6 km/h (1 Bft) W-SW 247 0 min 0 UV-I 0 W/m 6,4 km/h (2 Bft)
17.03.2011 23:10 6,2 C 90 % 1013,1 hPa 0,0 mm 1,6 km/h (1 Bft) W-SW 247 0 min 0 UV-I 0 W/m 6,4 km/h (2 Bft)
17.03.2011 23:20 6,2 C 90 % 1013,2 hPa 0,0 mm 1,6 km/h (1 Bft) W-SW 247 0 min 0 UV-I 0 W/m 8,0 km/h (2 Bft)
17.03.2011 23:30 6,3 C 90 % 1013,3 hPa 0,0 mm 1,6 km/h (1 Bft) W-SW 247 0 min 0 UV-I 0 W/m 8,0 km/h (2 Bft)
17.03.2011 23:40 6,3 C 90 % 1013,3 hPa 0,0 mm 1,6 km/h (1 Bft) W-SW 247 0 min 0 UV-I 0 W/m 16,1 km/h (3 Bft)
17.03.2011 23:50 6,3 C 90 % 1013,3 hPa 0,0 mm 3,2 km/h (1 Bft) W 270 0 min 0 UV-I 0 W/m 11,3 km/h (2 Bft)
_ Min-Zeit 00:00 00:00 04:20 - 00:10 - - - - - 19:30
Minimum _ 5,1 C 88 % 1006,0 hPa - 0,0 km/h (0 Bft) - - - - - 1,6 km/h (1 Bft)
_ Max-Zeit 23:30 05:10 23:30 00:00 00:30 - - 00:00 00:00 12:10 09:30
Maximum _ 6,3 C 91 % 1013,3 hPa 0,0 mm 3,2 km/h
N (1 Bft)
- - 0 min 0 UV-I 63 W/m 16,1 km/h
N (3 Bft)
Durchschnitt _ 5,7 C 90 % 1008,6 hPa #0,0 mm 1,6 km/h (1 Bft) N-NO - #0 min. 0 UV-I 30 W/m 7,6 km/h (2 Bft)